Regional Weather Roundup
Issued by NWS

Home | Current Version | Previous Version | Text Only | Print | Product List | Glossary On
Versions: 1 2 3 4 5 6 7 8 9 10 11 12 13 14 15 16 17 18 19 20 21 22 23 24 25 26 27 28 29 30 31 32 33 34 35 36 37 38 39 40 41 42 43 44 45 46 47 48 49 50
000
ASUS43 KDMX 252207
RWRIA

WEATHER ROUNDUP FOR IOWA
NATIONAL WEATHER SERVICE DES MOINES IA
500 PM CDT SAT APR 25 2015

NOTE: "FAIR" INDICATES FEW OR NO CLOUDS BELOW 12,000 FEET WITH NO
SIGNIFICANT WEATHER AND/OR OBSTRUCTIONS TO VISIBILITY.

* - THESE STATIONS ARE NOT NWS STATIONS...THUS NOT UNDER NWS
QUALITY CONTROL.  THEY ALSO DO NOT REPORT WEATHER SUCH
AS PRECIPITATION OR FOG.

IAZ001>003-012>014-020>022-031>034-043>046-252300-
   NORTHWEST IOWA

CITY           SKY/WX    TMP DP  RH WIND       PRES   REMARKS
CARROLL *      CLOUDY    50  45  81 E16       29.76R
CHEROKEE *     CLOUDY    55  41  58 E17G25    29.78R
DENISON *      CLOUDY    52  48  87 NE21      29.74S
LE MARS *      SUNNY     61  43  51 E10G24    29.78R
ORANGE CITY *  SUNNY     57  41  54 E13G22    29.78R
SHELDON *      PTSUNNY   57  41  54 E18G25    29.78R
SIOUX CITY     PTSUNNY   60  43  53 E17       29.76R
SPENCER        CLOUDY    55  43  63 NE17      29.80R
STORM LAKE *   CLOUDY    54  41  62 E16G23    29.79R
$$

IAZ055>058-069>071-079>083-090>094-252300-
   SOUTHWEST IOWA

CITY           SKY/WX    TMP DP  RH WIND       PRES   REMARKS
ATLANTIC *     CLOUDY    50  46  87 NE20G25   29.73R
AUDUBON *      MOSUNNY   50  45  81 NE17      29.76R
CLARINDA *     CLOUDY    48  46  93 NE17G23   29.72R
COUNCIL BLFS * CLOUDY    52  50  93 NE17      29.73R
CRESTON *      CLOUDY    46  46 100 NE18      29.70R
HARLAN  *      CLOUDY    50  50 100 NE15G23   29.77R
LAMONI         LGT RAIN  49  46  90 NE16G24   29.67R FOG
RED OAK *      CLOUDY    50  46  87 NE16G26   29.72R
SHENANDOAH *   CLOUDY    50  46  87 NE17      29.72R
$$

IAZ047>049-059>061-072>074-084-252300-
   CENTRAL IOWA

CITY           SKY/WX    TMP DP  RH WIND       PRES   REMARKS
AMES           CLOUDY    51  42  71 NE15      29.76R
ANKENY *       CLOUDY    52  45  76 MISG      29.74R
CHARITON *     CLOUDY    48  46  93 NE14G21   29.70R
DES MOINES     CLOUDY    52  45  77 NE15G23   29.73R
GRINNELL*      CLOUDY    50  45  81 NE12      29.74R
KNOXVILLE *    CLOUDY    50  45  81 NE16G24   29.70R
MARSHALLTOWN   CLOUDY    50  42  74 NE18G24   29.75R
PELLA *        MOSUNNY   48  48 100 NE12G20   29.73R
PERRY *        CLOUDY    52  45  76 NE15      29.75R
$$

IAZ004>006-015-016-023>025-035-036-252300-
   NORTH CENTRAL IOWA

CITY           SKY/WX    TMP DP  RH WIND       PRES   REMARKS
ALGONA *       CLOUDY    54  41  62 NE17      29.81R
CLARION *      CLOUDY    54  41  62 E20G25    29.79R
ESTHERVILLE    CLOUDY    52  41  66 NE15      29.81R
FORT DODGE *   CLOUDY    54  39  58 E21       29.80R
MASON CITY     CLOUDY    52  40  63 E18       29.82R
FOREST CITY *  CLOUDY    50  37  62 E13G20    29.82R
IOWA FALLS *   CLOUDY    52  39  62 E17G24    29.79R
$$

IAZ007>011-017>019-026>030-037>042-050>054-066-252300-
   NORTHEAST IOWA

CITY           SKY/WX    TMP DP  RH WIND       PRES   REMARKS
CEDAR RAPIDS   CLOUDY    50  43  77 E16G25    29.74R
CHARLES CITY * CLOUDY    52  41  66 NE15G22   29.81R
CLINTON *      PTSUNNY   48  39  71 NE18      29.78R
DECORAH *      CLOUDY    52  36  54 E17       29.81R
DUBUQUE        CLOUDY    50  35  56 E18G30    29.78R
MONTICELLO *   CLOUDY    52  41  66 E14G22    29.76R
OELWEIN *      CLOUDY    50  39  66 E17       29.80R
WATERLOO       CLOUDY    51  39  63 NE20      29.79R
$$

IAZ064-065-067-068-078-252300-
   EAST CENTRAL IOWA

CITY           SKY/WX    TMP DP  RH WIND       PRES   REMARKS
DAVENPORT      CLOUDY    49  41  74 E20G28    29.74R
IOWA CITY      CLOUDY    51  42  71 NE15G23   29.75R
MT. PLEASANT * CLOUDY    46  46 100 NE21      29.70R FOG
MUSCATINE *    CLOUDY    50  43  76 NE17      29.74R
QUAD CITIES    CLOUDY    49  42  77 E16       29.73R
$$

IAZ062-063-075>077-085>089-095>099-252300-
   SOUTHEAST IOWA

CITY           SKY/WX    TMP DP  RH WIND       PRES   REMARKS
BURLINGTON     CLOUDY    48  46  93 NE16      29.68R
FAIRFIELD *    CLOUDY    48  45  87 NE18G25   29.70R
FORT MADISON * CLOUDY    48  46  93 NE15G22   29.68R
KEOKUK *       CLOUDY    48  46  93 NE10G21   29.66R
OSKALOOSA *    CLOUDY    48  45  87 NE17G26   29.71R
CENTERVILLE *  CLOUDY    48  48 100 NE10G18   29.69R
OTTUMWA        CLOUDY    49  46  90 NE21G26   29.70R
WASHINGTON *   CLOUDY    48  48 100 NE13      29.72R
$$

ABBREVIATIONS USED IN REMARKS
   TC - TEMPERATURES IN CELSIUS
  WCI - WIND CHILL INDEX
   HX - HEAT INDEX
  VSB - VISIBILITY
$$



USA.gov is the U.S. government's official web portal to all federal, state and local government web resources and services.